www.pogodaiklimat.ru

Погода и климат >> Архив погоды >> Россия >> Красноярский край >> Норильск


АРХИВ ПОГОДЫ в Норильске

Время (UTC), дата Ветер
(напр.,м/с)
 
Видим.   Явления Облачность Т
(С)
Тd
(С)
f
(%)
Тe
(С)
Тes
(С)
Комфортность P
(гПа)
Po
(гПа)
Тmin
(С)
Tmax
(С)
R
(мм)
R24
(мм)
S
(см)
00 17.01 ЮВ 3 10 км {снег} 4/0
[Ci fib]
-24.4 -27.6 75 -33 -33 опасность
обморожения
1011.1 1002.1 -24.7 0.5 58
03 17.01 ЮВ 4 20 км 4/0
[Ac lent Ci fib]
-24.8 -26.6 85 -35 -35 опасность
обморожения
1012.3 1003.3 -25.1
06 17.01 ЮВ 2 4000 м слаб. снег 9/5 600 м
[Sc Ac As Cs]
-23.8 -25.6 85 -30 -30 по сезону 1013.8 1004.9
09 17.01 ЮВ 4 4000 м слаб. снег 10/4 600 м
[Sc As trans Cs]
-22.2 -24.1 84 -32 -32 опасность
обморожения
1015.8 1006.8
12 17.01 ЮВ 3 4000 м слаб. снег 10/3 600 м
[Sc As trans Cs]
-22.1 -24.0 84 -30 -30 по сезону 1017.0 1008.0 -21.5 0.3
15 17.01 В 4 4000 м слаб. снег 10/0 2000 м
[Ac trans Cs]
-22.2 -24.1 84 -32 -32 опасность
обморожения
1017.3 1008.3
18 17.01 В 7-12
{12}
4000 м слаб. снег {метель} 10/0
[Ac trans Cs]
-19.7 -21.6 85 -31 -31 опасность
обморожения
1014.9 1006.0
21 17.01 В 11-15
{19}
1000 м слаб. снег {метель} 10/0 2000 м
[Ac As]
-19.8 -21.7 85 -34 -34 опасность
обморожения
1011.3 1002.5
00 18.01 ЮВ 13-17
{18}
1000 м слаб. снег {метель} 10/0
[Ac As]
-15.0 -17.0 85 -28 -28 по сезону 1006.5 997.9 -22.5 1 63
03 18.01 ЮВ 10-15
{17}
2000 м слаб. снег {метель} 10/0 2000 м
[Ac As]
-12.2 -14.2 85 -23 -23 тепло 1003.5 995.0
06 18.01 ЮВ 10-15
{16}
10 км позёмок {снег} 10/8 600 м
[Sc Ac As]
-10.4 -14.0 75 -21 -21 тепло 1002.1 992.8
09 18.01 Ю 8-13
{15}
4000 м слаб. снег {метель} 10/10 600 м
[Sc]
-9.4 -12.4 79 -19 -19 тепло 999.8 991.5
12 18.01 Ю 9-13
{13}
4000 м слаб. снег {метель} 10/10 600 м
[Sc]
-9.4 -11.9 82 -20 -20 тепло 998.8 990.5 -9.4 0.3
15 18.01 Ю 10-16
{17}
2000 м слаб. снег {метель} 10/10 600 м
[Sc]
-9.3 -11.8 82 -20 -20 тепло 997.1 988.8
18 18.01 Ю 12-19
{21}
1000 м метель {снег} 8/8 600 м
[Sc]
-9.2 -11.7 82 -21 -21 тепло 996.9 988.6
21 18.01 Ю 9-15
{19}
1000 м слаб. снег {метель} 10/8 600 м
[Sc As trans Cs]
-9.5 -12.1 81 -20 -20 тепло 997.9 989.6
00 19.01 ЮВ 7-12
{15}
4000 м слаб. снег {метель} 10/5 600 м
[Sc As trans Cs]
-9.3 -12.3 79 -18 -18 тепло 997.7 989.4 -9.9 2 58
03 19.01 В 7-12
{13}
4000 м слаб. снег {метель} 10/4 600 м
[Sc As trans Cs]
-9.8 -12.9 78 -19 -19 тепло 996.3 988.0
06 19.01 ЮВ 7-13
{13}
2000 м снег {метель} 10/3 600 м
[Sc As op]
-10.3 -13.1 80 -19 -19 тепло 994.6 986.3
09 19.01 Ю 9-13
{14}
4000 м слаб. снег {метель} 10/6 600 м
[Sc Ac As]
-10.9 -13.7 80 -21 -21 тепло 993.2 984.9
12 19.01 Ю 6-11
{14}
10 км позёмок {снег} 10/0
[Ac und]
-11.2 -14.8 75 -20 -20 тепло 993.0 984.7 -9.3 0.4
15 19.01 ЮВ 5-10
{12}
4000 м слаб. снег {метель} 10/0
[Ac As]
-11.2 -14.8 75 -19 -19 тепло 992.5 984.2
18 19.01 ЮВ 5
{13}
4000 м слаб. снег {метель} 10/0
[Cs]
-11.4 -14.9 75 -19 -19 тепло 992.5 984.2
21 19.01 ЮЗ 5
{11}
4000 м слаб. снег {метель} 10/0
[Cs]
-12.1 -15.6 75 -20 -20 тепло 993.8 985.4
00 20.01 ЮЗ 4
{10}
10 км {снег, метель} 4/0
[Ac trans]
-15.8 -20.0 70 -24 -24 тепло 996.6 988.1 -15.9 0.2 56
03 20.01 ЮЗ 6 20 км 3/0
[Ac trans]
-18.2 -22.3 70 -29 -29 по сезону 997.6 989.0
06 20.01 Ю 5
{11}
10 км {метель} 6/0
[Ac trans]
-19.5 -23.6 70 -29 -29 по сезону 999.2 990.5
09 20.01 ЮЗ 6
{11}
10 км позёмок 6/0
[Ac trans]
-21.6 -25.6 70 -33 -33 опасность
обморожения
1001.6 992.9
12 20.01 ЮВ 4 4000 м слаб. снег {метель} 10/0
[Ac As]
-22.4 -25.6 75 -32 -32 опасность
обморожения
1004.5 995.6 -15.8 0.0
15 20.01 С 2 10 км {снег} 10/0
[Ac trans Ci fib]
-21.2 -24.5 75 -27 -27 по сезону 1006.2 997.4
18 20.01 СЗ 1 4000 м слаб. снег 10/0
[Ac trans Cs]
-23.0 -25.6 79 -26 -26 по сезону 1008.6 999.7
21 20.01 Ю 4 4000 м слаб. снег 10/0
[Ac As]
-23.6 -26.9 74 -33 -33 опасность
обморожения
1012.0 1003.1
00 21.01 В 1 2000 м снег 10/0
[As op]
-25.0 -27.4 80 -29 -29 по сезону 1015.4 1006.4 -25.1 2 57
03 21.01 В 2 4000 м слаб. снег 10/0
[Ac trans Cs]
-28.4 -30.2 84 -36 -36 опасность
обморожения
1018.4 1009.3 -28.6
06 21.01 ЮВ 7 4000 м слаб. снег {метель} 10/0
[Ac As]
-29.1 -31.6 79 -43 -43 опасность
обморожения
1020.6 1011.4
09 21.01 В 8-10
{12}
2000 м снег {метель} 10/0
[As op]
-28.0 -30.5 79 -43 -43 опасность
обморожения
1023.1 1014.0
12 21.01 ЮВ 9-12
{12}
2000 м снег {метель} 10/0
[As op]
-26.3 -28.7 80 -41 -41 опасность
обморожения
1023.6 1014.5 -25.0 3
15 21.01 В 8-11
{13}
4000 м слаб. снег {метель} 10/0
[Ac As]
-24.6 -27.9 74 -38 -38 опасность
обморожения
1023.4 1014.4
18 21.01 ЮВ 9-11
{13}
10 км позёмок 8/0
[Ac trans]
-23.0 -26.3 74 -37 -37 опасность
обморожения
1022.0 1013.0
21 21.01 ЮВ 9-11
{13}
10 км позёмок 8/0
[Ac trans]
-23.0 -26.3 74 -37 -37 опасность
обморожения
1022.0 1013.0
00 22.01 ЮВ 6
{13}
10 км позёмок 8/0
[Ac As]
-20.8 -24.1 75 -32 -32 опасность
обморожения
1019.7 1010.8 -26.4 0.0 57
03 22.01 ЮВ 6
{12}
10 км позёмок 10/0
[Ac und Cs]
-18.6 -22.7 70 -29 -29 по сезону 1016.8 1008.0
06 22.01 ЮВ 7-10
{11}
20 км позёмок 10/0
[Ac trans Cs]
-22.0 -25.3 74 -34 -34 опасность
обморожения
1014.9 1005.9
09 22.01 ЮВ 8-11
{12}
20 км позёмок 10/0
[Ac As]
-21.6 -24.8 75 -34 -34 опасность
обморожения
1013.2 1004.4
12 22.01 В 5
{11}
10 км позёмок 10/5 600 м
[Sc Ac As]
-14.8 -19.1 70 -24 -24 тепло 1014.0 1005.3 -14.5
15 22.01 ЮВ 5
{15}
10 км позёмок 10/6 600 м
[Sc Ac und]
-12.9 -15.6 80 -21 -21 тепло 1013.9 1005.3
18 22.01 ЮВ 4 20 км {метель} 8/4 600 м
[Sc Ac trans Ci fib]
-14.6 -18.1 75 -22 -22 тепло 1014.7 1006.0
21 22.01 В 1 20 км 6/3 600 м
[Sc Ac trans Ci fib]
-17.0 -20.4 75 -20 -20 тепло 1015.6 1006.9
00 23.01 В 2 20 км 6/0
[Ci fib]
-18.6 -21.2 80 -24 -24 тепло 1016.0 1007.2 -18.9 55
03 23.01 Ю 1 20 км 10/0
[Ac und]
-17.8 -21.2 75 -21 -21 тепло 1016.5 1007.7
06 23.01 В 3 4000 м слаб. снег 10/10 600 м
[Sc]
-17.1 -19.7 80 -24 -24 тепло 1017.3 1008.5
09 23.01 В 5 4000 м слаб. снег {метель} 10/0
[Ac As]
-17.4 -20.0 80 -27 -27 по сезону 1017.4 1008.6
12 23.01 ЮВ 4 4000 м слаб. снег {метель} 6/0
[Cs]
-18.9 -21.5 80 -28 -28 по сезону 1017.7 1008.9 -17.1 0.0
15 23.01 ЮВ 4 10 км {снег} 8/0
[Ac trans Cs]
-21.4 -23.9 80 -31 -31 опасность
обморожения
1017.8 1008.9
18 23.01 ЮВ 4 20 км {снег} 6/0
[Ci sp]
-21.2 -23.7 80 -30 -30 по сезону 1018.5 1009.6
21 23.01 ЮВ 2 20 км 9/0
[Cs]
-23.4 -25.9 80 -30 -30 по сезону 1020.2 1011.2

 

Местоположение метеостанции Норильск (Красноярский край, Россия): широта 69.33 долгота 88.30 высота над уровнем моря 65 м.

В архиве по умолчанию представлена погода в Норильске за последнюю неделю. Архивные данные за месяц целиком и за предыдущие месяцы, начиная с января 2011 года, Вы можете получить, выбрав интересующий диапазон дат из раскрывающегося списка и нажав кнопку "Ввод!".


*Определитесь, кто Вы:
робот инопланетянин человек

Внимание! Время в таблицах - всемирное. Для получения местного времени необходимо прибавить поправку, которая равна 7 ч.

Смотрите также архив погоды в соседних городах и на ближайших метеорологических станциях:

Погода в Потапово (Красноярский край, Россия) (110 км)
Погода в Снежногорске (Красноярский край, Россия) (138 км)
Погода в Крестах Таймырских (Красноярский край, Россия) (181 км)
Погода в Горбиачине (Красноярский край, Россия) (207 км)
Погода в Карауле (Красноярский край, Россия) (215 км)
Погода в Игарке (Красноярский край, Россия) (219 км)
Погода в Светлогорске (Красноярский край, Россия) (265 км)
Погода в Волочанке (Красноярский край, Россия) (297 км)
Погода в Курейке (Красноярский край, Россия) (321 км)
Погода в Советской Речке (Красноярский край, Россия) (336 км)

Пояснения к столбцам:

Ветер - указаны скорость ветра в м/с - средняя за 10 мин, порывы в срок и между сроками (в фигурных скобках) и направление, откуда дует ветер: С - северный, СВ - северо-восточный, В - восточный, ЮВ - юго-восточный, Ю - южный, ЮЗ - юго-западный, З - западный, СЗ - северо-западный.
Видимость - горизонтальная дальность видимости в метрах или километрах. При видимости от 1 до 10 км при отсутствии осадков обычно наблюдается дымка, при ухудшении видимости до 1 км и менее - туман. В сухую погоду видимость может ухудшаться дымом, пылью или мглою.
Явления - указаны атмосферные явления, наблюдавшиеся в срок или в последний час перед сроком; фигурными скобками обозначены явления, наблюдавшиеся между сроками (за 1-3 часа до срока); квадратными скобками обозначены град или гололедные отложения с указанием их диаметра в мм.
Облачность - указаны через наклонную черту общая и нижняя облачность в баллах и высота нижней границы облаков в метрах; квадратными скобками обозначены формы облаков: Ci - перистые, Cs - перисто-слоистые, Cc - перисто-кучевые, Ac - высококучевые, As - высокослоистые, Sc - слоисто-кучевые, Ns - слоисто-дождевые, Cu - кучевые, Cb - кучево-дождевые. Подробнее классификацию облаков см. в Атласе облаков (PDF).
T - Температура воздуха - температура, измеренная на высоте 2 м над землей.
Td - Температура точки росы - температура, при понижении до которой содержащийся в воздухе водяной пар достигнет насыщения.
f - Относительная влажность воздуха - влажноcть воздуха, измеренная на высоте 2 м над землей.
Te - Эффективная температура - температура, которую ощущает одетый по сезону человек в тени. Характеристика душности погоды. При расчете учитывается влияние влажности воздуха и скорости ветра на теплоощущения человека.
Tes - Эффективная температура на солнце - температура, которую ощущает человек, с поправкой на солнечный нагрев. Характеристика знойности погоды. Зависит от высоты солнца над горизонтом, облачности и скорости ветра. Ночью, в пасмурную погоду, а также при ветре 12 м/с и более поправка равна нулю.
P - Атмосферное давление - приведенное к уровню моря атмосферное давление.
Po - Атмосферное давление - измеренное на уровне метеостанции атмосферное давление.
Tmin - Минимальная температура - минимум температуры воздуха на высоте 2 м над землей.
Tmax - Максимальная температура - максимум температуры воздуха на высоте 2 м над землей.
R - Количество осадков - Количество выпавших осадков за период времени, мм. При наведении курсора мыши на число - период времени, за который выпало указанное количество осадков.
R24 - Количество осадков - Количество выпавших осадков за 24 часа, мм.
S - Снежный покров - Высота снежного покрова, см. При наведении курсора мыши на число - состояние снежного покрова и степень покрытия местности в баллах.